• In Spain
  • List of Countries
  • For 7 days
  • Water Temperature
  • Satellite Maps
  • Weather Map
  • Weather Widgets
  • user-avatar
    Login

    Hourly Weather Lezhe

    Today, 21 October, Saturday

    Time Temperature Precipitation Wind Pressure Humidity
    00:00 +15°C° 0 mm 1 mps 741 mmHg 75%
    01:00 +15°C° 0 mm 1 mps 740 mmHg 73%
    02:00 +15°C° 0 mm 1 mps 740 mmHg 72%
    03:00 +15°C° 0 mm 1 mps 740 mmHg 71%
    04:00 +14°C° 0 mm 1 mps 740 mmHg 70%
    05:00 +15°C° 0 mm 1 mps 740 mmHg 68%
    06:00 +15°C° 0 mm 1 mps 740 mmHg 67%
    07:00 +16°C° 0 mm 1 mps 740 mmHg 65%
    08:00 +19°C° 0 mm 1 mps 740 mmHg 59%
    09:00 +21°C° 0 mm 1 mps 740 mmHg 53%
    10:00 +23°C° 0 mm 1 mps 740 mmHg 46%
    11:00 +23°C° 0 mm 2 mps 740 mmHg 46%
    12:00 +24°C° 0 mm 2 mps 740 mmHg 45%
    13:00 +24°C° 0 mm 3 mps 739 mmHg 44%
    14:00 +22°C° 0 mm 3 mps 739 mmHg 50%
    15:00 +21°C° 0 mm 2 mps 739 mmHg 56%
    16:00 +20°C° 0 mm 2 mps 738 mmHg 62%
    17:00 +19°C° 0 mm 2 mps 739 mmHg 70%
    18:00 +17°C° 0 mm 2 mps 739 mmHg 78%
    19:00 +15°C° 0 mm 1 mps 739 mmHg 86%
    20:00 +15°C° 0 mm 1 mps 739 mmHg 86%
    21:00 +15°C° 0 mm 1 mps 739 mmHg 86%
    22:00 +14°C° 0 mm 1 mps 739 mmHg 86%
    23:00 +14°C° 0 mm 1 mps 739 mmHg 85%

    Tomorrow, 22 October, Sunday

    Time Temperature Precipitation Wind Pressure Humidity
    00:00 +14°C° 0 mm 1 mps 739 mmHg 84%
    01:00 +14°C° 0 mm 1 mps 739 mmHg 82%
    02:00 +14°C° 0 mm 1 mps 739 mmHg 81%
    03:00 +13°C° 0 mm 1 mps 738 mmHg 80%
    04:00 +13°C° 0 mm 1 mps 738 mmHg 78%
    05:00 +14°C° 0 mm 1 mps 738 mmHg 77%
    06:00 +14°C° 0 mm 1 mps 738 mmHg 75%
    07:00 +15°C° 0 mm 1 mps 738 mmHg 73%
    08:00 +16°C° 0 mm 1 mps 738 mmHg 70%
    09:00 +18°C° 0 mm 2 mps 738 mmHg 66%
    10:00 +20°C° 0 mm 2 mps 738 mmHg 63%
    11:00 +20°C° 0 mm 2 mps 737 mmHg 63%
    12:00 +21°C° 0 mm 2 mps 737 mmHg 63%
    13:00 +21°C° 0 mm 2 mps 736 mmHg 63%
    14:00 +21°C° 0 mm 2 mps 736 mmHg 67%
    15:00 +20°C° 0 mm 2 mps 736 mmHg 71%
    16:00 +19°C° 0 mm 2 mps 735 mmHg 75%
    17:00 +18°C° 0 mm 2 mps 735 mmHg 81%
    18:00 +17°C° 0 mm 2 mps 735 mmHg 86%
    19:00 +16°C° 0 mm 1 mps 735 mmHg 92%
    20:00 +16°C° 0.2 mm 2 mps 735 mmHg 91%
    21:00 +16°C° 0.2 mm 2 mps 734 mmHg 89%
    22:00 +16°C° 0.2 mm 2 mps 734 mmHg 88%
    23:00 +16°C° 0.7 mm 2 mps 734 mmHg 87%

    Day after tomorrow, 23 October, Monday

    Time Temperature Precipitation Wind Pressure Humidity
    00:00 +16°C° 0.7 mm 2 mps 733 mmHg 87%
    01:00 +16°C° 0.7 mm 3 mps 732 mmHg 86%
    02:00 +16°C° 0.9 mm 3 mps 732 mmHg 84%
    03:00 +16°C° 0.9 mm 3 mps 731 mmHg 83%
    04:00 +16°C° 0.9 mm 3 mps 730 mmHg 81%
    05:00 +14°C° 1.3 mm 3 mps 730 mmHg 82%
    06:00 +14°C° 1.3 mm 3 mps 730 mmHg 83%
    07:00 +14°C° 1.3 mm 3 mps 729 mmHg 84%
    08:00 +16°C° 0.6 mm 3 mps 729 mmHg 82%
    09:00 +15°C° 0.6 mm 4 mps 729 mmHg 81%
    10:00 +15°C° 0.6 mm 4 mps 729 mmHg 79%
    11:00 +17°C° 0.9 mm 4 mps 729 mmHg 77%
    12:00 +17°C° 0.9 mm 4 mps 729 mmHg 75%
    13:00 +17°C° 0.9 mm 4 mps 728 mmHg 74%
    14:00 +16°C° 0.8 mm 3 mps 728 mmHg 75%
    15:00 +16°C° 0.8 mm 2 mps 728 mmHg 77%
    16:00 +15°C° 0.8 mm 1 mps 728 mmHg 79%
    17:00 +14°C° 0.4 mm 2 mps 728 mmHg 81%
    18:00 +14°C° 0.4 mm 2 mps 728 mmHg 84%
    19:00 +13°C° 0.4 mm 2 mps 728 mmHg 87%
    20:00 +12°C° 0.4 mm 2 mps 728 mmHg 86%
    21:00 +12°C° 0.4 mm 2 mps 728 mmHg 86%
    22:00 +12°C° 0.4 mm 2 mps 728 mmHg 85%
    23:00 +11°C° 0.2 mm 3 mps 728 mmHg 84%

    24 October, Tuesday

    Time Temperature Precipitation Wind Pressure Humidity
    00:00 +10°C° 0.2 mm 3 mps 728 mmHg 84%
    01:00 +10°C° 0.2 mm 3 mps 728 mmHg 83%
    02:00 +10°C° 0.1 mm 3 mps 728 mmHg 83%
    03:00 +9°C° 0.1 mm 3 mps 728 mmHg 82%
    04:00 +9°C° 0.1 mm 3 mps 728 mmHg 81%
    05:00 +9°C° 0.2 mm 3 mps 728 mmHg 80%
    06:00 +10°C° 0.2 mm 3 mps 728 mmHg 79%
    07:00 +10°C° 0.2 mm 3 mps 728 mmHg 79%
    08:00 +11°C° 0.3 mm 3 mps 728 mmHg 76%
    09:00 +11°C° 0.3 mm 3 mps 728 mmHg 73%
    10:00 +12°C° 0.3 mm 3 mps 729 mmHg 70%
    11:00 +13°C° 0.2 mm 4 mps 728 mmHg 68%
    12:00 +13°C° 0.2 mm 4 mps 728 mmHg 66%
    13:00 +13°C° 0.2 mm 4 mps 728 mmHg 64%
    14:00 +13°C° 0.1 mm 4 mps 728 mmHg 66%
    15:00 +13°C° 0.1 mm 4 mps 728 mmHg 67%
    16:00 +13°C° 0.1 mm 4 mps 728 mmHg 68%
    17:00 +12°C° 0.1 mm 4 mps 729 mmHg 71%
    18:00 +11°C° 0.1 mm 4 mps 729 mmHg 74%
    19:00 +11°C° 0.1 mm 4 mps 729 mmHg 76%
    20:00 +11°C° 0.1 mm 4 mps 730 mmHg 77%
    21:00 +11°C° 0.1 mm 4 mps 730 mmHg 78%
    22:00 +11°C° 0.1 mm 4 mps 730 mmHg 79%
    23:00 +11°C° 0.1 mm 4 mps 731 mmHg 80%

    25 October, Wednesday

    Time Temperature Precipitation Wind Pressure Humidity
    00:00 +11°C° 0.1 mm 4 mps 731 mmHg 80%
    01:00 +11°C° 0.1 mm 4 mps 731 mmHg 81%
    02:00 +11°C° 0.2 mm 4 mps 731 mmHg 81%
    03:00 +11°C° 0.2 mm 4 mps 732 mmHg 81%
    04:00 +10°C° 0.2 mm 5 mps 732 mmHg 82%
    05:00 +10°C° 0.1 mm 5 mps 732 mmHg 81%
    06:00 +10°C° 0.1 mm 5 mps 733 mmHg 81%
    07:00 +10°C° 0.1 mm 5 mps 733 mmHg 80%
    08:00 +12°C° 0 mm 5 mps 734 mmHg 76%
    09:00 +13°C° 0 mm 6 mps 734 mmHg 72%
    10:00 +14°C° 0 mm 6 mps 734 mmHg 67%
    11:00 +14°C° 0.1 mm 6 mps 735 mmHg 66%
    12:00 +14°C° 0.1 mm 6 mps 735 mmHg 65%
    13:00 +15°C° 0.1 mm 6 mps 735 mmHg 64%
    14:00 +14°C° 0 mm 6 mps 735 mmHg 66%
    15:00 +13°C° 0 mm 6 mps 735 mmHg 67%
    16:00 +13°C° 0 mm 6 mps 735 mmHg 68%
    17:00 +12°C° 0 mm 5 mps 736 mmHg 69%
    18:00 +10°C° 0 mm 5 mps 736 mmHg 70%
    19:00 +10°C° 0 mm 5 mps 737 mmHg 70%
    20:00 +9°C° 0 mm 5 mps 737 mmHg 71%
    21:00 +9°C° 0 mm 5 mps 737 mmHg 71%
    22:00 +9°C° 0 mm 5 mps 737 mmHg 71%
    23:00 +8°C° 0 mm 5 mps 737 mmHg 71%

    26 October, Thursday

    Time Temperature Precipitation Wind Pressure Humidity
    00:00 +8°C° 0 mm 5 mps 738 mmHg 71%
    01:00 +8°C° 0 mm 5 mps 738 mmHg 71%
    02:00 +8°C° 0 mm 5 mps 738 mmHg 72%
    03:00 +7°C° 0 mm 5 mps 738 mmHg 72%
    04:00 +7°C° 0 mm 6 mps 738 mmHg 72%
    05:00 +7°C° 0 mm 6 mps 739 mmHg 72%
    06:00 +7°C° 0 mm 6 mps 739 mmHg 72%
    07:00 +7°C° 0 mm 6 mps 740 mmHg 72%
    08:00 +8°C° 0 mm 6 mps 740 mmHg 67%
    09:00 +10°C° 0 mm 6 mps 740 mmHg 61%
    10:00 +11°C° 0 mm 7 mps 741 mmHg 56%
    11:00 +12°C° 0 mm 7 mps 741 mmHg 55%
    12:00 +13°C° 0 mm 6 mps 741 mmHg 54%
    13:00 +14°C° 0 mm 6 mps 741 mmHg 53%
    14:00 +13°C° 0 mm 6 mps 741 mmHg 55%
    15:00 +11°C° 0 mm 6 mps 741 mmHg 58%
    16:00 +10°C° 0 mm 6 mps 742 mmHg 61%
    17:00 +9°C° 0 mm 5 mps 742 mmHg 64%
    18:00 +8°C° 0 mm 5 mps 743 mmHg 67%
    19:00 +7°C° 0 mm 5 mps 743 mmHg 71%
    20:00 +7°C° 0 mm 5 mps 744 mmHg 71%
    21:00 +7°C° 0 mm 5 mps 744 mmHg 72%
    22:00 +7°C° 0 mm 5 mps 744 mmHg 73%
    23:00 +6°C° 0 mm 5 mps 745 mmHg 73%
    Show more